Location: *
(58.7167°N, 26.1833°E)
Time: 05:59:02
(UTC+00:00)

Cosmos 614 Rocket - Pass Details

Date: 25 August 2019
Orbit: 732 x 764 km, 74.1° (Epoch: 22 September)

Event Time Altitude Azimuth Distance (km) Brightness Sun altitude
Rises 21:43:32 0° 328° (NNW) 3,236 8.4 -20.3°
Reaches altitude 10° 21:45:55 10° 330° (NNW) 2,310 7.5 -20.4°
Maximum altitude 21:51:11 79° 58° (ENE) 787 4.0 -20.5°
Enters shadow 21:53:15 38° 139° (SE) 1,166 4.5 -20.5°
